[keps] orb12068.2l.amsat
Ray Hoad
ray.hoad at mypbmail.com
Thu Mar 8 21:08:48 PST 2012
SB KEPS @ AMSAT $ORB12068.N
2Line Orbital Elements 12068.AMSAT
HR AMSAT ORBITAL ELEMENTS FOR AMATEUR SATELLITES IN NASA FORMAT
FROM WA5QGD FORT WORTH,TX March 8, 2012
Send SUBSCRIBE KEPS/UNSUBSCRIBE KEPS to majordomo at amsat.org only
BID: ORB12068.N
DECODE 2-LINE ELSETS WITH THE FOLLOWING KEY:
1 AAAAAU 00 0 0 BBBBB.BBBBBBBB .CCCCCCCC 00000-0 00000-0 0 DDDZ
2 AAAAA EEE.EEEE FFF.FFFF GGGGGGG HHH.HHHH III.IIII JJ.JJJJJJJJKKKKKZ
KEY: A-CATALOGNUM B-EPOCHTIME C-DECAY D-ELSETNUM E-INCLINATION F-RAAN
G-ECCENTRICITY H-ARGPERIGEE I-MNANOM J-MNMOTION K-ORBITNUM Z-CHECKSUM
TO ALL RADIO AMATEURS BT
AO-07
1 07530U 74089B 12067.55286541 -.00000027 00000-0 10000-3 0 03263
2 07530 101.4013 068.6993 0012120 121.5543 238.6716 12.53587938707317
FO-29
1 24278U 96046B 12067.87282827 -.00000042 00000-0 -30636-5 0 7908
2 24278 098.5751 181.8180 0349771 291.7006 064.7237 13.52977492768259
SO-33
1 25509U 98061B 12068.65143873 .00000347 00000-0 58756-4 0 1811
2 25509 031.4318 182.5824 0352507 043.6490 319.1453 14.28677676698262
RS-22
1 27939U 03042A 12068.79925379 .00000667 00000-0 13593-3 0 1532
2 27939 097.8194 274.7209 0012806 219.8482 140.1787 14.63922118451197
VO-52
1 28650U 05017B 12067.56635556 .00001046 00000-0 13512-3 0 00448
2 28650 097.6101 103.4515 0026953 017.5422 342.6728 14.82716923369915
HO-68
1 36122U 09072B 12068.80960932 -.00000044 00000-0 00000 0 0 2661
2 36122 100.3750 130.1348 0007179 341.0631 019.0216 13.16293596107185
UO-11
1 14781U 84021B 12068.88424508 .00000870 00000-0 12097-3 0 8088
2 14781 097.9676 129.2329 0009163 005.9880 354.1438 14.80335040505099
AO-16
1 20439U 90005D 12067.84510566 .00000127 00000-0 63147-4 0 04195
2 20439 098.4194 014.1118 0011769 098.0639 262.1879 14.32023328155497
LO-19
1 20442U 90005G 12067.95341623 .00000091 00000-0 49137-4 0 03469
2 20442 098.3850 017.5809 0012842 091.6664 268.5986 14.32243432155694
AO-27
1 22825U 93061C 12067.89040198 .00000037 00000-0 31365-4 0 00592
2 22825 098.5638 012.3335 0007881 212.5448 147.5248 14.29434569962002
IO-26
1 22826U 93061D 12067.98057547 .00000114 00000-0 61176-4 0 07999
2 22826 098.5588 012.8195 0008306 207.3780 152.6965 14.29706149962144
GO-32
1 25397U 98043D 12067.88315687 .00000018 00000-0 26048-4 0 7207
2 25397 098.3539 051.6296 0001068 173.7130 186.4061 14.23260614709619
NO-44
1 26931U 01043C 12067.82144679 .00000047 00000-0 50412-4 0 09881
2 26931 067.0522 021.5846 0006668 278.0861 081.9496 14.29766501544752
SO-50
1 27607U 02058C 12068.57547874 .00000644 00000-0 11783-3 0 7075
2 27607 064.5570 240.9296 0085130 268.2976 090.8348 14.72241208495157
CO-55
1 27844U 03031E 12068.58376257 .00000087 00000-0 60053-4 0 3269
2 27844 098.7039 078.4222 0010409 149.4477 210.7328 14.20971228450602
CO-57
1 27848U 03031J 12067.51364720 .00000166 00000-0 96975-4 0 02750
2 27848 098.7128 076.6554 0009795 155.7109 204.4520 14.20729611450398
AO-51
1 28375U 04025K 12067.55864821 .00000196 00000-0 71642-4 0 2118
2 28375 098.1340 037.6305 0084265 349.4979 010.4458 14.40904934404138
CP3
1 31129U 07012N 12066.95774588 .00000878 00000-0 20907-3 0 01114
2 31129 097.8865 080.7489 0102500 081.3100 279.9704 14.52914447259137
CO-65
1 32785U 08021C 12067.82453336 .00001392 00000-0 17858-3 0 2479
2 32785 097.8126 131.2354 0015373 037.3346 322.8927 14.82729580208744
PRISM
1 33493U 09002B 12068.70226033 .00003407 00000-0 42186-3 0 4941
2 33493 098.1546 207.0040 0018074 261.6424 098.2745 14.83307542168855
SOHLA-1
1 33496U 09002E 12068.83571717 .00000495 00000-0 91002-4 0 6690
2 33496 098.0932 181.3027 0006740 009.5462 350.5865 14.69884425167505
SO-67
1 35870U 09049F 12068.75638398 .00004980 00000-0 21500-3 0 7519
2 35870 097.2445 108.0326 0003116 133.7856 002.8205 15.22944530137328
TISAT-1
1 36799U 10035E 12068.79253858 .00002080 00000-0 27110-3 0 7685
2 36799 098.0699 144.3934 0016208 135.9320 224.3159 14.81587328 89623
STUDSAT
1 36801U 10035G 12068.86398432 .00005107 00000-0 62953-3 0 3510
2 36801 098.0768 144.7872 0014165 123.1393 237.1189 14.83289889 89648
FO-69
1 37227U 0 12046.04422040 .00000330 00000-0 54773-4 0 01033
2 37227 071.9672 223.6606 0017759 195.0744 164.9889 14.76923927017912
FO-70
1 37380U 0 12046.50349291 .00000331 00000-0 55150-4 0 01064
2 37380 071.9705 223.0530 0018152 191.1227 168.9536 14.76682035017870
NOAA-10
1 16969U 86073A 12067.94995305 .00000097 00000-0 57094-4 0 08483
2 16969 098.5938 098.7555 0012559 167.0817 193.0686 14.27531687325429
NOAA-11
1 19531U 88089A 12067.81329213 -.00000187 00000-0 -74383-4 0 08443
2 19531 098.7345 155.0953 0011393 149.5385 210.6464 14.14954140210174
NOAA-12
1 21263U 91032A 12067.97237122 .00000015 00000-0 25217-4 0 03438
2 21263 098.7369 090.0773 0014448 132.8509 227.3889 14.25480865082139
MET-3/5
1 21655U 91056A 12067.88355211 .00000051 00000-0 10000-3 0 03544
2 21655 082.5540 223.7400 0012795 211.5409 148.4941 13.17033826988560
MET-2/21
1 22782U 93055A 12067.70303292 .00000005 00000-0 -86725-5 0 03583
2 22782 082.5468 113.0403 0024200 077.8504 282.5355 13.83676283935135
OKEAN-4
1 23317U 94066A 12068.88301268 .00001045 00000-0 12345-3 0 8250
2 23317 082.5410 124.9688 0020585 327.3845 032.6098 14.83617459939937
NOAA-14
1 23455U 94089A 12067.92203529 .00000058 00000-0 53988-4 0 08277
2 23455 098.8325 152.6841 0008568 246.8045 113.2223 14.13880495886480
NOAA-15
1 25338U 98030A 12067.60000508 .00000058 00000-0 43429-4 0 01773
2 25338 098.6826 055.5059 0011363 047.3467 312.8659 14.25036603718387
RESURS
1 25394U 98043A 12067.95934195 .00000032 00000-0 31583-4 0 00415
2 25394 098.3135 061.5586 0001420 137.7572 222.3722 14.24276004709998
FENGYUN1
1 25730U 99025A 12067.91247069 .00001353 00000-0 80079-3 0 5531
2 25730 098.8406 028.7027 0019364 297.8250 062.0953 14.09291711660345
OKEAN-0
1 25860U 99039A 12067.92156399 .00000528 00000-0 87640-4 0 05799
2 25860 097.9234 032.7138 0000705 095.4296 264.6993 14.74105007679659
NOAA-16
1 26536U 00055A 12067.61716395 -.00000141 00000-0 -51157-4 0 06613
2 26536 099.1085 108.1124 0010609 013.9333 346.2132 14.12709113590690
NOAA-17
1 27453U 02032A 12067.87123964 .00000008 00000-0 21032-4 0 06261
2 27453 098.3486 099.9787 0012724 094.2260 266.0361 14.24399848504330
NOAA-18
1 28654U 05018A 12067.92157822 .00000377 00000-0 23241-3 0 01030
2 28654 099.0345 025.2302 0015162 080.2969 279.9895 14.11615553350278
NOAA-19
1 33591U 09005A 12067.69401595 .00000005 00000-0 27201-4 0 02916
2 33591 098.8553 008.7849 0013541 311.3380 048.6619 14.11301114158690
HUBBLE
1 20580U 90037B 12068.28511873 .00001749 00000-0 11696-3 0 9588
2 20580 028.4699 083.7260 0003334 068.9947 291.1075 15.02245874999546
ISS
1 25544U 98067A 12068.80260505 .00017971 00000-0 23171-3 0 1537
2 25544 051.6406 265.4244 0017716 134.9286 342.9388 15.58908139762366
CO-58
1 28895U 05043F 12068.58335821 .00000765 00000-0 16655-3 0 1172
2 28895 097.9315 299.2012 0018768 106.2309 254.0982 14.60508883338977
FALCON
1 30776U 07006E 12067.70517199 .00004034 00000-0 26824-3 0 03182
2 30776 035.4321 176.3304 0002063 230.9842 129.0692 15.06766555274936
MAST
1 31126U 07012K 12067.58859055 .00000630 00000-0 15051-3 0 4027
2 31126 097.8792 084.6209 0095166 067.4177 293.7048 14.54052479259500
CAPE1
1 31130U 07012P 12068.50244326 .00000527 00000-0 12979-3 0 4148
2 31130 097.8857 081.9298 0102959 076.9724 284.2933 14.52794403259154
COMPASS
1 32787U 08021E 12068.65757036 .00001978 00000-0 24584-3 0 2437
2 32787 097.8120 132.1927 0015913 033.5637 326.6635 14.83586585208900
AAUSAT2
1 32788U 08021F 12067.83870776 .00001808 00000-0 22385-3 0 02354
2 32788 097.8142 131.7188 0015385 038.5879 321.6416 14.83868159208806
DO-64
1 32789U 08021G 12068.65205666 .00003570 00000-0 42324-3 0 2494
2 32789 097.8246 134.1818 0015065 032.0990 328.1201 14.85075517208957
CO-66
1 32791U 08021J 12067.73298487 .00001645 00000-0 20810-3 0 02372
2 32791 097.8126 131.1043 0016482 035.9625 324.2705 14.83074304208705
RS-30
1 32953U 08025A 12068.76005739 .00000010 00000-0 00000 0 0 5908
2 32953 082.5076 357.5876 0018473 163.4216 196.7476 12.43021436172083
TACSAT-3
1 35001U 09028A 12068.87555765 .00169358 00000-0 90431-3 0 8961
2 35001 040.4479 334.5096 0011804 262.0547 097.8951 15.78945931158565
PHARMSAT
1 35002U 09028B 12068.90092960 .00073232 00000-0 65387-3 0 8191
2 35002 040.4663 340.7508 0001453 020.2273 339.8609 15.67394012158506
METEOR-M
1 35865U 09049A 12068.73100192 -.00000431 00000-0 -17577-3 0 2127
2 35865 098.6672 124.8850 0002248 005.1434 354.9740 14.21855286128328
RS-38
1 35869U 09049E 12068.76665834 .00000149 00000-0 87092-4 0 2206
2 35869 098.6633 124.9313 0004297 354.0562 006.0560 14.22057675128342
JUGNU
1 37839U 11058B 12068.75401376 .00000620 00000-0 19019-3 0 1022
2 37839 019.9556 246.6808 0018700 197.7906 162.1847 14.12029162 21039
SRMSAT
1 37841U 11058D 12068.74279691 .00000264 00000-0 00000 0 0 1049
2 37841 019.9684 249.6253 0012256 168.5354 191.5314 14.10120593 20991
RAX-2
1 37853U 11061D 12068.89871544 .00005545 00000-0 44987-3 0 1163
2 37853 101.7133 063.4828 0250172 276.5609 080.7172 14.79102565 19563
AUBIESAT
1 37854U 11061E 12068.87707347 .00005987 00000-0 47862-3 0 1199
2 37854 101.7181 063.5791 0250991 275.9347 081.3328 14.79424191 19559
HRBE
1 37855U 11061F 12067.93544331 .00005321 00000-0 42660-3 0 01281
2 37855 101.7203 062.1959 0251848 278.9442 078.3333 14.79305558019419
RS-39
1 38051U 11062C 12068.84275463 .00009876 00000-0 43183-3 0 1324
2 38051 051.6467 277.3923 0011501 039.1399 148.8731 15.22629941 6675
/EX
More information about the Keps
mailing list